Time,TemperatureF,DewpointF,PressureIn,WindDirection,WindDirectionDegrees,WindSpeedMPH,WindSpeedGustMPH,Humidity,HourlyPrecipIn,Conditions,Clouds,dailyrainin,SoftwareType,DateUTC
2013-02-15 05:30:00,30.6,29.3,29.75,South,182,0.0,0.0,95,0.00,,,0.00,Wunderground v.1.15,2013-02-15 10:30:00,
2013-02-15 05:40:00,30.4,29.1,29.75,South,182,0.0,0.0,95,0.00,,,0.00,Wunderground v.1.15,2013-02-15 10:40:00,
2013-02-15 05:50:00,30.6,29.3,29.75,South,182,0.0,0.0,95,0.00,,,0.00,Wunderground v.1.15,2013-02-15 10:50:00,
2013-02-15 06:00:00,30.6,29.3,29.76,South,188,1.0,1.0,95,0.00,,,0.00,Wunderground v.1.15,2013-02-15 11:00:00,
2013-02-15 06:10:00,30.6,29.3,29.75,South,172,1.0,2.0,95,0.00,,,0.00,Wunderground v.1.15,2013-02-15 11:10:00,
2013-02-15 06:20:00,30.4,29.1,29.75,SSW,207,1.0,2.0,95,0.00,,,0.00,Wunderground v.1.15,2013-02-15 11:20:00,
2013-02-15 06:30:00,30.3,29.0,29.75,South,189,1.0,1.0,95,0.00,,,0.00,Wunderground v.1.15,2013-02-15 11:30:00,
2013-02-15 06:40:00,30.2,28.9,29.75,SSE,161,1.0,1.0,95,0.00,,,0.00,Wunderground v.1.15,2013-02-15 11:40:00,
2013-02-15 06:50:00,30.1,29.1,29.75,South,191,1.0,1.0,96,0.00,,,0.00,Wunderground v.1.15,2013-02-15 11:50:00,
2013-02-15 07:00:00,30.0,28.7,29.75,South,190,1.0,1.0,95,0.00,,,0.00,Wunderground v.1.15,2013-02-15 12:00:00,
2013-02-15 07:10:00,30.0,28.7,29.76,South,175,0.0,0.0,95,0.00,,,0.00,Wunderground v.1.15,2013-02-15 12:10:00,
2013-02-15 07:20:00,30.1,28.8,29.76,SSW,196,0.0,1.0,95,0.00,,,0.00,Wunderground v.1.15,2013-02-15 12:20:00,
2013-02-15 07:30:00,30.4,29.4,29.75,SW,219,1.0,1.0,96,0.00,,,0.00,Wunderground v.1.15,2013-02-15 12:30:00,
2013-02-15 07:40:00,30.5,29.5,29.76,South,186,1.0,1.0,96,0.00,,,0.00,Wunderground v.1.15,2013-02-15 12:40:00,
2013-02-15 07:50:00,30.7,29.7,29.76,South,186,1.0,1.0,96,0.00,,,0.00,Wunderground v.1.15,2013-02-15 12:50:00,
2013-02-15 08:00:00,30.9,29.9,29.76,SSW,194,0.0,0.0,96,0.00,,,0.00,Wunderground v.1.15,2013-02-15 13:00:00,
2013-02-15 08:10:00,31.2,30.2,29.76,SSW,194,1.0,1.0,96,0.00,,,0.00,Wunderground v.1.15,2013-02-15 13:10:00,
2013-02-15 08:20:00,31.4,30.4,29.76,South,180,0.0,0.0,96,0.00,,,0.00,Wunderground v.1.15,2013-02-15 13:20:00,
2013-02-15 08:30:00,31.9,30.9,29.76,South,180,0.0,0.0,96,0.00,,,0.00,Wunderground v.1.15,2013-02-15 13:30:00,
2013-02-15 08:40:00,32.4,31.4,29.77,South,180,1.0,1.0,96,0.00,,,0.00,Wunderground v.1.15,2013-02-15 13:40:00,
2013-02-15 08:50:00,33.4,32.1,29.76,SSW,198,1.0,1.0,95,0.00,,,0.00,Wunderground v.1.15,2013-02-15 13:50:00,
2013-02-15 09:00:00,34.0,31.6,29.76,SSW,194,1.0,3.0,91,0.00,,,0.00,Wunderground v.1.15,2013-02-15 14:00:00,
2013-02-15 09:10:00,34.5,31.6,29.76,South,189,2.0,2.0,89,0.00,,,0.00,Wunderground v.1.15,2013-02-15 14:10:00,
2013-02-15 09:20:00,35.5,32.0,29.76,SSW,196,1.0,1.0,87,0.00,,,0.00,Wunderground v.1.15,2013-02-15 14:20:00,
2013-02-15 09:30:00,36.5,32.1,29.76,South,179,1.0,4.0,84,0.00,,,0.00,Wunderground v.1.15,2013-02-15 14:30:00,
2013-02-15 09:40:00,37.2,32.2,29.76,SSW,196,2.0,2.0,82,0.00,,,0.00,Wunderground v.1.15,2013-02-15 14:40:00,
2013-02-15 09:50:00,37.9,32.6,29.76,South,189,2.0,3.0,81,0.00,,,0.00,Wunderground v.1.15,2013-02-15 14:50:00,
2013-02-15 10:00:00,38.4,32.8,29.76,SSW,212,3.0,3.0,80,0.00,,,0.00,Wunderground v.1.15,2013-02-15 15:00:00,
2013-02-15 10:10:00,39.4,33.1,29.76,SSE,168,2.0,2.0,78,0.00,,,0.00,Wunderground v.1.15,2013-02-15 15:10:00,
2013-02-15 10:20:00,39.6,33.3,29.76,South,169,2.0,2.0,78,0.00,,,0.00,Wunderground v.1.15,2013-02-15 15:20:00,
2013-02-15 10:30:00,40.4,33.4,29.76,SSE,165,2.0,3.0,76,0.00,,,0.00,Wunderground v.1.15,2013-02-15 15:30:00,
2013-02-15 10:40:00,41.0,33.7,29.76,SSW,203,2.0,2.0,75,0.00,,,0.00,Wunderground v.1.15,2013-02-15 15:40:00,
2013-02-15 10:50:00,41.4,33.7,29.76,SSW,196,3.0,3.0,74,0.00,,,0.00,Wunderground v.1.15,2013-02-15 15:50:00,
2013-02-15 11:00:00,42.2,33.8,29.76,South,184,3.0,3.0,72,0.00,,,0.00,Wunderground v.1.15,2013-02-15 16:00:00,
2013-02-15 11:10:00,42.2,33.8,29.75,SSE,160,3.0,3.0,72,0.00,,,0.00,Wunderground v.1.15,2013-02-15 16:10:00,
2013-02-15 11:20:00,42.8,34.0,29.75,SSW,209,3.0,3.0,71,0.00,,,0.00,Wunderground v.1.15,2013-02-15 16:20:00,
2013-02-15 11:30:00,43.1,33.6,29.74,SSW,202,3.0,5.0,69,0.00,,,0.00,Wunderground v.1.15,2013-02-15 16:30:00,
2013-02-15 11:40:00,43.8,33.6,29.74,SW,220,4.0,4.0,67,0.00,,,0.00,Wunderground v.1.15,2013-02-15 16:40:00,
2013-02-15 11:50:00,43.5,34.0,29.74,South,178,2.0,2.0,69,0.00,,,0.00,Wunderground v.1.15,2013-02-15 16:50:00,
2013-02-15 12:00:00,44.0,33.7,29.73,SE,145,2.0,2.0,67,0.00,,,0.00,Wunderground v.1.15,2013-02-15 17:00:00,
2013-02-15 12:10:00,44.3,33.7,29.72,SW,221,2.0,3.0,66,0.00,,,0.00,Wunderground v.1.15,2013-02-15 17:10:00,
2013-02-15 12:20:00,44.7,33.6,29.72,South,190,3.0,3.0,65,0.00,,,0.00,Wunderground v.1.15,2013-02-15 17:20:00,
2013-02-15 12:30:00,45.0,33.5,29.72,SSW,194,2.0,3.0,64,0.00,,,0.00,Wunderground v.1.15,2013-02-15 17:30:00,
2013-02-15 12:40:00,45.2,33.7,29.72,SSE,149,3.0,3.0,64,0.00,,,0.00,Wunderground v.1.15,2013-02-15 17:40:00,
2013-02-15 12:50:00,45.9,34.0,29.71,SSW,195,3.0,4.0,63,0.00,,,0.00,Wunderground v.1.15,2013-02-15 17:50:00,
2013-02-15 13:00:00,46.3,34.0,29.71,South,180,2.0,2.0,62,0.00,,,0.00,Wunderground v.1.15,2013-02-15 18:00:00,
2013-02-15 13:10:00,46.0,33.7,29.70,South,184,3.0,3.0,62,0.00,,,0.00,Wunderground v.1.15,2013-02-15 18:10:00,
2013-02-15 13:20:00,46.0,33.7,29.70,SSW,207,2.0,5.0,62,0.00,,,0.00,Wunderground v.1.15,2013-02-15 18:20:00,
2013-02-15 13:30:00,46.0,33.3,29.69,SSW,198,3.0,3.0,61,0.00,,,0.00,Wunderground v.1.15,2013-02-15 18:30:00,
2013-02-15 13:40:00,46.2,33.5,29.70,SSW,209,2.0,2.0,61,0.00,,,0.00,Wunderground v.1.15,2013-02-15 18:40:00,
2013-02-15 13:50:00,46.0,33.7,29.69,South,175,2.0,2.0,62,0.00,,,0.00,Wunderground v.1.15,2013-02-15 18:50:00,
2013-02-15 14:00:00,46.4,33.7,29.69,South,184,2.0,2.0,61,0.00,,,0.00,Wunderground v.1.15,2013-02-15 19:00:00,
2013-02-15 14:10:00,46.8,33.6,29.69,SSW,193,3.0,3.0,60,0.00,,,0.00,Wunderground v.1.15,2013-02-15 19:10:00,
2013-02-15 14:20:00,46.7,33.5,29.69,SSE,155,2.0,2.0,60,0.00,,,0.00,Wunderground v.1.15,2013-02-15 19:20:00,
2013-02-15 14:30:00,46.1,33.4,29.68,SE,146,2.0,2.0,61,0.00,,,0.00,Wunderground v.1.15,2013-02-15 19:30:00,
2013-02-15 14:40:00,46.3,33.6,29.68,South,184,3.0,4.0,61,0.00,,,0.00,Wunderground v.1.15,2013-02-15 19:40:00,
2013-02-15 14:50:00,46.0,33.7,29.68,SSW,204,2.0,2.0,62,0.00,,,0.00,Wunderground v.1.15,2013-02-15 19:50:00,
2013-02-15 15:00:00,46.1,33.4,29.68,SSW,205,3.0,3.0,61,0.00,,,0.00,Wunderground v.1.15,2013-02-15 20:00:00,
2013-02-15 15:10:00,46.3,33.6,29.68,SSW,194,2.0,2.0,61,0.00,,,0.00,Wunderground v.1.15,2013-02-15 20:10:00,
2013-02-15 15:20:00,46.4,33.3,29.68,SSW,200,3.0,4.0,60,0.00,,,0.00,Wunderground v.1.15,2013-02-15 20:20:00,
2013-02-15 15:30:00,46.5,33.4,29.68,South,189,3.0,3.0,60,0.00,,,0.00,Wunderground v.1.15,2013-02-15 20:30:00,
2013-02-15 15:40:00,46.5,32.9,29.68,SSW,208,2.0,5.0,59,0.00,,,0.00,Wunderground v.1.15,2013-02-15 20:40:00,
2013-02-15 15:50:00,46.3,32.3,29.68,SSE,166,3.0,3.0,58,0.00,,,0.00,Wunderground v.1.15,2013-02-15 20:50:00,
2013-02-15 16:00:00,45.9,32.4,29.68,South,191,3.0,4.0,59,0.00,,,0.00,Wunderground v.1.15,2013-02-15 21:00:00,
2013-02-15 16:10:00,45.9,32.8,29.68,SSW,202,2.0,3.0,60,0.00,,,0.00,Wunderground v.1.15,2013-02-15 21:10:00,
2013-02-15 16:20:00,45.7,32.6,29.68,SSW,194,2.0,2.0,60,0.00,,,0.00,Wunderground v.1.15,2013-02-15 21:20:00,
2013-02-15 16:30:00,45.4,32.3,29.68,SSW,201,2.0,2.0,60,0.00,,,0.00,Wunderground v.1.15,2013-02-15 21:30:00,
2013-02-15 16:40:00,44.6,32.0,29.68,South,181,2.0,2.0,61,0.00,,,0.00,Wunderground v.1.15,2013-02-15 21:40:00,
2013-02-15 16:50:00,44.1,32.3,29.68,SSW,192,1.0,3.0,63,0.00,,,0.00,Wunderground v.1.15,2013-02-15 21:50:00,
2013-02-15 17:00:00,43.3,32.3,29.68,South,182,1.0,1.0,65,0.00,,,0.00,Wunderground v.1.15,2013-02-15 22:00:00,
2013-02-15 17:10:00,43.1,32.1,29.68,SSW,196,1.0,1.0,65,0.00,,,0.00,Wunderground v.1.15,2013-02-15 22:10:00,
2013-02-15 17:20:00,43.0,32.4,29.69,South,182,1.0,1.0,66,0.00,,,0.00,Wunderground v.1.15,2013-02-15 22:20:00,
2013-02-15 17:30:00,42.4,32.2,29.69,South,183,1.0,2.0,67,0.00,,,0.00,Wunderground v.1.15,2013-02-15 22:30:00,
2013-02-15 17:40:00,42.2,32.4,29.69,SSW,194,2.0,3.0,68,0.00,,,0.00,Wunderground v.1.15,2013-02-15 22:40:00,
2013-02-15 17:50:00,41.9,32.5,29.69,SSW,198,2.0,2.0,69,0.00,,,0.00,Wunderground v.1.15,2013-02-15 22:50:00,
2013-02-15 18:00:00,41.4,32.7,29.70,South,190,1.0,1.0,71,0.00,,,0.00,Wunderground v.1.15,2013-02-15 23:00:00,
2013-02-15 18:10:00,41.0,32.7,29.70,South,190,1.0,2.0,72,0.00,,,0.00,Wunderground v.1.15,2013-02-15 23:10:00,
2013-02-15 18:20:00,40.6,32.6,29.70,SW,218,1.0,1.0,73,0.00,,,0.00,Wunderground v.1.15,2013-02-15 23:20:00,
2013-02-15 18:30:00,40.0,32.7,29.70,SW,218,0.0,1.0,75,0.00,,,0.00,Wunderground v.1.15,2013-02-15 23:30:00,
2013-02-15 18:40:00,40.0,32.7,29.70,SSW,194,1.0,1.0,75,0.00,,,0.00,Wunderground v.1.15,2013-02-15 23:40:00,
2013-02-15 18:50:00,39.6,32.7,29.70,SSW,194,1.0,1.0,76,0.00,,,0.00,Wunderground v.1.15,2013-02-15 23:50:00,
2013-02-15 19:00:00,38.9,32.3,29.70,SSW,194,0.0,0.0,77,0.00,,,0.00,Wunderground v.1.15,2013-02-16 00:00:00,
2013-02-15 19:10:00,38.7,32.7,29.70,SSW,194,0.0,1.0,79,0.00,,,0.00,Wunderground v.1.15,2013-02-16 00:10:00,
2013-02-15 19:20:00,38.6,33.0,29.69,SSW,194,1.0,1.0,80,0.00,,,0.00,Wunderground v.1.15,2013-02-16 00:20:00,
2013-02-15 19:30:00,38.4,33.1,29.70,SSW,194,1.0,1.0,81,0.00,,,0.00,Wunderground v.1.15,2013-02-16 00:30:00,
2013-02-15 19:40:00,37.8,33.1,29.70,SSW,194,0.0,0.0,83,0.00,,,0.00,Wunderground v.1.15,2013-02-16 00:40:00,
2013-02-15 19:50:00,37.7,33.3,29.70,SSW,194,0.0,0.0,84,0.00,,,0.00,Wunderground v.1.15,2013-02-16 00:50:00,
2013-02-15 20:00:00,37.0,32.9,29.70,SSW,194,0.0,0.0,85,0.00,,,0.00,Wunderground v.1.15,2013-02-16 01:00:00,
2013-02-15 20:10:00,36.3,32.5,29.70,SSW,194,0.0,0.0,86,0.00,,,0.00,Wunderground v.1.15,2013-02-16 01:10:00,
2013-02-15 20:20:00,35.8,32.3,29.70,SSW,194,0.0,0.0,87,0.00,,,0.00,Wunderground v.1.15,2013-02-16 01:20:00,
2013-02-15 20:30:00,35.5,32.3,29.70,SSW,194,0.0,0.0,88,0.00,,,0.00,Wunderground v.1.15,2013-02-16 01:30:00,
2013-02-15 20:40:00,35.5,32.0,29.70,SSW,194,0.0,0.0,87,0.00,,,0.00,Wunderground v.1.15,2013-02-16 01:40:00,
2013-02-15 20:50:00,35.6,32.4,29.70,SSW,194,0.0,0.0,88,0.00,,,0.00,Wunderground v.1.15,2013-02-16 01:50:00,
2013-02-15 21:00:00,34.7,31.2,29.70,SSW,194,0.0,0.0,87,0.00,,,0.00,Wunderground v.1.15,2013-02-16 02:00:00,
2013-02-15 21:10:00,35.4,32.5,29.70,SSW,194,0.0,0.0,89,0.00,,,0.00,Wunderground v.1.15,2013-02-16 02:10:00,
2013-02-15 21:20:00,35.5,32.3,29.70,SSW,194,0.0,0.0,88,0.00,,,0.00,Wunderground v.1.15,2013-02-16 02:20:00,
2013-02-15 21:30:00,34.6,31.7,29.70,SSW,194,0.0,0.0,89,0.00,,,0.00,Wunderground v.1.15,2013-02-16 02:30:00,
2013-02-15 21:40:00,33.9,31.3,29.70,SSW,194,0.0,0.0,90,0.00,,,0.00,Wunderground v.1.15,2013-02-16 02:40:00,
2013-02-15 21:50:00,33.8,31.2,29.70,SSW,194,0.0,0.0,90,0.00,,,0.00,Wunderground v.1.15,2013-02-16 02:50:00,
2013-02-15 22:00:00,33.0,30.7,29.70,SSW,194,0.0,0.0,91,0.00,,,0.00,Wunderground v.1.15,2013-02-16 03:00:00,